FW4559 Weather Reports


time (UTC)temp
C
wind
direction
speed
KPH
gust
KPH
rain 1hr
cm
rain 24hr
cm
rain mn
cm
humidity
%
barometer
mb
20260505224030 18 165 12.9 25.7 0.00 0.00 0.00 45 1012.0
20260505223530 18 149 8.0 27.4 0.00 0.00 0.00 46 1011.9
20260505223029 18 175 16.1 27.4 0.00 0.00 0.00 45 1011.7
20260505222531 18 200 12.9 27.4 0.00 0.00 0.00 45 1011.7
20260505222029 18 155 8.0 19.3 0.00 0.00 0.00 45 1011.8
20260505221534 18 110 4.8 17.7 0.00 0.00 0.00 46 1011.9
20260505221028 18 139 8.0 24.1 0.00 0.00 0.00 45 1012.0
20260505220529 18 155 9.7 27.4 0.00 0.00 0.00 45 1011.9
20260505220030 18 229 9.7 25.7 0.00 0.00 0.00 44 1011.8
20260505215528 18 184 12.9 25.7 0.00 0.00 0.00 43 1011.5
20260505215027 18 150 9.7 22.5 0.00 0.00 0.00 43 1011.7
20260505214526 18 296 6.4 22.5 0.00 0.00 0.00 43 1011.8
20260505214026 18 221 1.6 22.5 0.00 0.00 0.00 44 1011.9
20260505213525 18 193 6.4 32.2 0.00 0.00 0.00 43 1012.0
20260505213028 18 154 14.5 32.2 0.00 0.00 0.00 42 1012.0
20260505212528 18 136 1.6 25.7 0.00 0.00 0.00 44 1011.9
20260505212025 18 206 8.0 25.7 0.00 0.00 0.00 42 1012.0
20260505211525 18 186 9.7 24.1 0.00 0.00 0.00 42 1012.0
20260505211023 18 150 8.0 40.2 0.00 0.00 0.00 43 1012.0
20260505210523 19 133 16.1 40.2 0.00 0.00 0.00 42 1012.3
20260505210023 19 183 11.3 32.2 0.00 0.00 0.00 42 1012.2
20260505205523 19 202 9.7 20.9 0.00 0.00 0.00 42 1012.2
20260505205023 19 129 6.4 27.4 0.00 0.00 0.00 41 1012.3
20260505204523 19 165 9.7 29.0 0.00 0.00 0.00 41 1012.1
20260505204025 19 213 11.3 27.4 0.00 0.00 0.00 41 1012.0
20260505203521 19 193 12.9 32.2 0.00 0.00 0.00 41 1012.2
20260505203027 20 177 17.7 32.2 0.00 0.00 0.00 40 1012.4
20260505202520 20 144 17.7 27.4 0.00 0.00 0.00 39 1012.5
20260505202020 20 171 9.7 27.4 0.00 0.00 0.00 39 1012.7
20260505201520 20 201 6.4 25.7 0.00 0.00 0.00 42 1012.4
20260505201019 20 188 11.3 25.7 0.00 0.00 0.00 41 1012.3
20260505200521 20 214 8.0 20.9 0.00 0.00 0.00 40 1012.3
20260505200030 20 167 8.0 22.5 0.00 0.00 0.00 41 1012.4
20260505195518 20 269 9.7 29.0 0.00 0.00 0.00 41 1012.7
20260505195017 20 198 9.7 22.5 0.00 0.00 0.00 42 1012.7
20260505194516 20 188 6.4 17.7 0.00 0.00 0.00 43 1012.7
20260505194016 20 155 6.4 19.3 0.00 0.00 0.00 42 1012.8
20260505193515 20 140 8.0 17.7 0.00 0.00 0.00 42 1012.7
20260505193015 20 211 9.7 22.5 0.00 0.00 0.00 42 1012.6
20260505192517 19 186 8.0 33.8 0.00 0.00 0.00 42 1012.6
20260505192014 19 115 14.5 33.8 0.00 0.00 0.00 42 1012.8
20260505191514 19 144 11.3 30.6 0.00 0.00 0.00 42 1012.9
20260505191012 19 160 12.9 25.7 0.00 0.00 0.00 42 1012.9
20260505190515 20 161 16.1 25.7 0.00 0.00 0.00 41 1012.8
20260505190014 20 156 8.0 22.5 0.00 0.00 0.00 42 1013.0
20260505185515 20 146 12.9 24.1 0.00 0.00 0.00 40 1013.0
20260505185011 20 124 9.7 32.2 0.00 0.00 0.00 42 1013.1
20260505184514 20 171 16.1 29.0 0.00 0.00 0.00 40 1013.4
20260505184011 20 188 9.7 19.3 0.00 0.00 0.00 39 1013.2
20260505183510 20 188 6.4 19.3 0.00 0.00 0.00 39 1013.2
20260505183009 20 148 6.4 30.6 0.00 0.00 0.00 40 1013.1
20260505182510 20 147 16.1 30.6 0.00 0.00 0.00 37 1013.3
20260505182009 20 223 9.7 30.6 0.00 0.00 0.00 37 1013.5
20260505181509 20 158 8.0 29.0 0.00 0.00 0.00 39 1013.5
20260505181008 20 122 4.8 22.5 0.00 0.00 0.00 39 1013.7
20260505180510 20 145 6.4 22.5 0.00 0.00 0.00 40 1013.5
20260505180008 20 148 11.3 24.1 0.00 0.00 0.00 39 1013.7
20260505175507 20 135 11.3 24.1 0.00 0.00 0.00 39 1013.8
20260505175007 20 143 12.9 27.4 0.00 0.00 0.00 39 1013.7
20260505174511 19 132 9.7 29.0 0.00 0.00 0.00 41 1013.9
20260505174007 19 130 12.9 29.0 0.00 0.00 0.00 41 1013.8
20260505173509 18 125 8.0 24.1 0.00 0.00 0.00 43 1013.7
20260505173018 19 139 8.0 24.1 0.00 0.00 0.00 42 1013.8
20260505172507 19 110 6.4 20.9 0.00 0.00 0.00 44 1013.7
20260505172006 19 222 6.4 19.3 0.00 0.00 0.00 45 1013.7
20260505171506 18 123 9.7 22.5 0.00 0.00 0.00 45 1013.6
20260505171010 18 134 11.3 22.5 0.00 0.00 0.00 46 1013.7
20260505170504 18 160 9.7 24.1 0.00 0.00 0.00 46 1013.8
20260505170006 18 135 12.9 22.5 0.00 0.00 0.00 47 1013.9
20260505165505 18 156 11.3 24.1 0.00 0.00 0.00 47 1013.7
20260505165005 18 94 12.9 24.1 0.00 0.00 0.00 45 1014.0
20260505164510 18 123 9.7 19.3 0.00 0.00 0.00 48 1014.0
20260505164005 18 157 8.0 16.1 0.00 0.00 0.00 48 1014.1
20260505163504 18 152 6.4 16.1 0.00 0.00 0.00 48 1014.2
20260505163011 18 161 6.4 16.1 0.00 0.00 0.00 50 1014.4
20260505162504 18 136 6.4 20.9 0.00 0.00 0.00 50 1014.5
20260505162003 18 131 11.3 20.9 0.00 0.00 0.00 50 1014.7
20260505161505 18 243 6.4 14.5 0.00 0.00 0.00 50 1014.6
20260505161002 18 152 9.7 16.1 0.00 0.00 0.00 49 1014.6
20260505160503 18 172 9.7 16.1 0.00 0.00 0.00 50 1014.7
20260505153117 20 108 3.2 12.9 0.00 0.00 0.00 45 1014.7
20260505152601 19 177 6.4 12.9 0.00 0.00 0.00 44 1014.7
20260505152101 20 143 3.2 9.7 0.00 0.00 0.00 44 1014.7
20260505151605 20 137 4.8 9.7 0.00 0.00 0.00 43 1014.8
20260505151059 20 147 6.4 12.9 0.00 0.00 0.00 43 1014.8
20260505150600 21 139 4.8 9.7 0.00 0.00 0.00 37 1014.7
20260505140551 18 198 3.2 11.3 0.00 0.00 0.00 44 1014.7
20260505125040 15 107 0.0 1.6 0.00 0.00 0.00 61 1014.7
20260505124538 14 107 0.0 1.6 0.00 0.00 0.00 64 1014.7
20260505124034 13 107 0.0 1.6 0.00 0.00 0.00 65 1014.7
20260505123535 13 107 0.0 1.6 0.00 0.00 0.00 64 1014.7
20260505123034 12 107 0.0 1.6 0.00 0.00 0.00 66 1014.8
20260505122537 12 107 0.0 0.0 0.00 0.00 0.00 65 1014.9
20260505122037 12 107 0.0 0.0 0.00 0.00 0.00 68 1014.9
20260505121537 11 107 0.0 0.0 0.00 0.00 0.00 70 1014.8
20260505121033 11 107 0.0 0.0 0.00 0.00 0.00 73 1014.9
20260505120531 10 107 0.0 0.0 0.00 0.00 0.00 75 1014.8
20260505120032 9 107 0.0 0.0 0.00 0.00 0.00 79 1014.7
20260505115530 8 107 0.0 1.6 0.00 0.00 0.00 81 1014.6
20260505115033 7 107 0.0 1.6 0.00 0.00 0.00 83 1014.4
20260505114537 7 107 0.0 1.6 0.00 0.00 0.00 84 1014.5
20260505114030 7 107 0.0 1.6 0.00 0.00 0.00 86 1014.4
20260505113529 6 107 0.0 1.6 0.00 0.00 0.00 86 1014.5
20260505113028 6 107 0.0 1.6 0.00 0.00 0.00 86 1014.4
20260505112528 6 107 0.0 1.6 0.00 0.00 0.00 86 1014.4
20260505112028 6 107 0.0 1.6 0.00 0.00 0.00 87 1014.3
20260505111534 6 105 0.0 0.0 0.00 0.00 0.00 86 1014.3
20260505111027 6 105 0.0 0.0 0.00 0.00 0.00 86 1014.4
20260505110529 6 105 0.0 0.0 0.00 0.00 0.00 85 1014.3
20260505102019 7 105 0.0 1.6 0.00 0.00 0.00 81 1014.0
20260505101518 7 105 0.0 1.6 0.00 0.00 0.00 80 1014.0
20260505101015 8 105 0.0 1.6 0.00 0.00 0.00 78 1014.0
20260505100514 8 105 0.0 1.6 0.00 0.00 0.00 76 1014.0
20260505100014 8 105 0.0 3.2 0.00 0.00 0.00 75 1014.0
20260505095515 8 105 0.0 3.2 0.00 0.00 0.00 76 1014.0
20260505095012 8 131 1.6 3.2 0.00 0.00 0.00 75 1014.1
20260505094511 9 99 0.0 3.2 0.00 0.00 0.00 74 1014.0
20260505094014 9 113 0.0 3.2 0.00 0.00 0.00 74 1013.9
20260505093509 9 115 0.0 3.2 0.00 0.00 0.00 74 1013.9
20260505093008 10 122 0.0 3.2 0.00 0.00 0.00 72 1014.0
20260505092509 10 109 0.0 4.8 0.00 0.00 0.00 71 1014.0
20260505092008 10 120 1.6 4.8 0.00 0.00 0.00 72 1014.0
20260505091508 9 123 0.0 3.2 0.00 0.00 0.00 72 1013.9
20260505091006 10 146 0.0 6.4 0.00 0.00 0.00 70 1013.9
20260505090505 10 221 1.6 6.4 0.00 0.00 0.00 69 1013.9
20260505090003 11 209 1.6 8.0 0.00 0.00 0.00 66 1013.9
20260505085502 11 237 1.6 9.7 0.00 0.00 0.00 63 1013.8
20260505085105 12 271 1.6 9.7 0.00 0.00 0.00 62 1013.7
20260505084600 12 250 0.0 12.9 0.00 0.00 0.00 61 1013.6
20260505084102 12 264 4.8 12.9 0.00 0.00 0.00 60 1013.7
20260505083559 12 210 3.2 12.9 0.00 0.00 0.00 60 1013.7
20260505083100 12 254 3.2 14.5 0.00 0.00 0.00 60 1013.7
20260505082559 12 248 3.2 14.5 0.00 0.00 0.00 60 1013.7
20260505082058 12 236 3.2 14.5 0.00 0.00 0.00 59 1013.6
20260505081603 12 266 3.2 9.7 0.00 0.00 0.00 60 1013.6
20260505081058 12 235 1.6 9.7 0.00 0.00 0.00 60 1013.5
20260505080556 12 133 3.2 11.3 0.00 0.00 0.00 61 1013.6
20260505080058 12 210 1.6 11.3 0.00 0.00 0.00 61 1013.6
20260505075600 12 266 1.6 6.4 0.00 0.00 0.00 62 1013.6
20260505075056 12 303 0.0 8.0 0.00 0.00 0.00 62 1013.6
20260505074610 12 229 1.6 8.0 0.00 0.00 0.00 61 1013.5
20260505074055 12 221 0.0 4.8 0.00 0.00 0.00 61 1013.5
20260505073555 12 274 1.6 6.4 0.00 0.00 0.00 61 1013.3
20260505073055 12 238 1.6 8.0 0.00 0.00 0.00 60 1013.3
20260505072552 12 113 1.6 11.3 0.00 0.00 0.00 60 1013.3
20260505072052 13 217 4.8 11.3 0.00 0.00 0.00 59 1013.2
20260505071551 13 237 3.2 9.7 0.00 0.00 0.00 59 1013.2
20260505071051 13 231 3.2 9.7 0.00 0.00 0.00 59 1013.3
20260505070550 13 248 4.8 12.9 0.00 0.00 0.00 59 1013.3
20260505070049 13 203 4.8 14.5 0.00 0.00 0.00 59 1013.5
20260505065548 13 216 4.8 14.5 0.00 0.00 0.00 59 1013.4
20260505065048 13 207 4.8 11.3 0.00 0.00 0.00 59 1013.4
20260505064546 13 212 4.8 14.5 0.00 0.00 0.00 58 1013.5
20260505064045 13 207 8.0 14.5 0.00 0.00 0.00 58 1013.5
20260505063544 13 205 8.0 14.5 0.00 0.00 0.00 57 1013.5
20260505063044 13 176 6.4 12.9 0.00 0.00 0.00 57 1013.6
20260505062543 13 226 4.8 12.9 0.00 0.00 0.00 57 1013.7
20260505062042 13 141 3.2 9.7 0.00 0.00 0.00 57 1013.6
20260505061606 13 195 3.2 12.9 0.00 0.00 0.00 57 1013.7
20260505061040 13 212 3.2 17.7 0.00 0.00 0.00 56 1013.7
20260505060541 13 205 4.8 17.7 0.00 0.00 0.00 56 1013.6
20260505060044 13 231 1.6 19.3 0.00 0.00 0.00 56 1013.8
20260505055538 14 226 1.6 19.3 0.00 0.00 0.00 55 1013.7
20260505055040 14 275 1.6 17.7 0.00 0.00 0.00 55 1013.8
20260505054541 14 96 6.4 17.7 0.00 0.00 0.00 55 1013.7
20260505054039 14 182 8.0 17.7 0.00 0.00 0.00 55 1013.9
20260505053535 14 231 3.2 12.9 0.00 0.00 0.00 55 1013.8
20260505053034 14 248 0.0 12.9 0.00 0.00 0.00 55 1013.8
20260505052535 14 234 3.2 14.5 0.00 0.00 0.00 54 1013.8
20260505052035 14 204 3.2 19.3 0.00 0.00 0.00 54 1013.9
20260505051535 14 145 6.4 19.3 0.00 0.00 0.00 54 1013.9
20260505051034 14 209 8.0 19.3 0.00 0.00 0.00 55 1013.9
20260505050532 14 181 8.0 27.4 0.00 0.00 0.00 54 1013.9
20260505041527 14 227 9.7 25.7 0.00 0.00 0.00 52 1013.9
20260505041026 15 149 9.7 24.1 0.00 0.00 0.00 52 1013.9
20260505040525 15 192 9.7 29.0 0.00 0.00 0.00 52 1013.8
20260505040024 15 191 14.5 29.0 0.00 0.00 0.00 52 1014.0
20260505035523 15 174 11.3 27.4 0.00 0.00 0.00 51 1014.1
20260505035023 15 207 11.3 22.5 0.00 0.00 0.00 51 1014.1
20260505034523 14 198 8.0 24.1 0.00 0.00 0.00 51 1014.3
20260505034023 15 184 9.7 32.2 0.00 0.00 0.00 51 1014.3
20260505033526 14 134 12.9 32.2 0.00 0.00 0.00 51 1014.3
20260505033033 14 171 6.4 20.9 0.00 0.00 0.00 50 1014.3
20260505032522 15 150 8.0 22.5 0.00 0.00 0.00 50 1014.4
20260505032023 14 202 12.9 22.5 0.00 0.00 0.00 50 1014.5
20260505031523 14 237 6.4 16.1 0.00 0.00 0.00 50 1014.5
20260505031022 15 193 1.6 16.1 0.00 0.00 0.00 49 1014.6
20260505030521 15 167 3.2 14.5 0.00 0.00 0.00 49 1014.7
20260505030021 15 207 6.4 27.4 0.00 0.00 0.00 48 1014.8
20260505025525 15 189 11.3 27.4 0.00 0.00 0.00 48 1014.8
20260505025021 15 209 1.6 17.7 0.00 0.00 0.00 48 1015.0
20260505024546 15 203 6.4 17.7 0.00 0.00 0.00 48 1014.9
20260505024020 15 159 4.8 17.7 0.00 0.00 0.00 48 1014.9
20260505023520 15 264 3.2 9.7 0.00 0.00 0.00 48 1014.9
20260505023020 15 110 3.2 16.1 0.00 0.00 0.00 47 1014.9
20260505022520 15 193 8.0 16.1 0.00 0.00 0.00 47 1014.8
20260505022020 15 234 3.2 14.5 0.00 0.00 0.00 47 1014.8
20260505021538 15 213 3.2 19.3 0.00 0.00 0.00 47 1014.9
20260505021019 15 198 3.2 17.7 0.00 0.00 0.00 46 1014.9
20260505020622 15 165 3.2 19.3 0.00 0.00 0.00 46 1014.9
20260505020019 15 165 6.4 19.3 0.00 0.00 0.00 46 1014.8
20260505015521 15 193 3.2 16.1 0.00 0.00 0.00 46 1014.8
20260505015019 15 143 4.8 16.1 0.00 0.00 0.00 45 1014.9
20260505014523 15 207 3.2 12.9 0.00 0.00 0.00 45 1014.9
20260505014019 15 86 3.2 12.9 0.00 0.00 0.00 45 1014.7
20260505013518 15 208 1.6 9.7 0.00 0.00 0.00 45 1014.7
20260505013018 15 163 1.6 9.7 0.00 0.00 0.00 45 1014.7
20260505012519 15 171 3.2 14.5 0.00 0.00 0.00 45 1014.6
20260505012017 15 182 3.2 16.1 0.00 0.00 0.00 45 1014.6
20260505011518 15 218 4.8 14.5 0.00 0.00 0.00 45 1014.6
20260505011017 15 176 3.2 12.9 0.00 0.00 0.00 45 1014.6
20260505010516 15 127 4.8 24.1 0.00 0.00 0.00 45 1014.6
20260505010016 15 214 9.7 24.1 0.00 0.00 0.00 45 1014.5
20260505005516 15 203 3.2 9.7 0.00 0.00 0.00 46 1014.5
20260505005016 16 238 3.2 11.3 0.00 0.00 0.00 47 1014.5
20260505004524 16 145 4.8 12.9 0.00 0.00 0.00 47 1014.4
20260505004015 16 133 1.6 12.9 0.00 0.00 0.00 48 1014.4
20260505003616 16 188 6.4 14.5 0.00 0.00 0.00 47 1014.3
20260505003015 16 195 3.2 11.3 0.00 0.00 0.00 47 1014.2
20260505002515 16 95 4.8 12.9 0.00 0.00 0.00 47 1014.1
20260505002015 16 170 3.2 12.9 0.00 0.00 0.00 47 1014.1
20260505001515 16 153 4.8 14.5 0.00 0.00 0.00 46 1014.1
20260505001017 17 169 3.2 9.7 0.00 0.00 0.00 46 1014.1
20260505000513 17 113 3.2 17.7 0.00 0.00 0.00 45 1014.2
20260505000014 17 120 4.8 17.7 0.00 0.00 0.00 45 1014.1
20260504235513 17 217 8.0 17.7 0.00 0.00 0.00 44 1014.0
20260504235017 17 205 8.0 16.1 0.00 0.00 0.00 44 1014.0
20260504234517 17 180 8.0 17.7 0.00 0.00 0.00 44 1013.9
20260504234016 17 131 8.0 17.7 0.00 0.00 0.00 44 1013.9
20260504233513 18 126 4.8 16.1 0.00 0.00 0.00 44 1013.8
20260504233013 18 136 6.4 16.1 0.00 0.00 0.00 43 1013.9
20260504232513 18 168 6.4 16.1 0.00 0.00 0.00 44 1013.8
20260504232012 18 68 4.8 16.1 0.00 0.00 0.00 43 1013.8
20260504231512 18 207 3.2 12.9 0.00 0.00 0.00 43 1013.7
20260504231015 18 154 4.8 20.9 0.00 0.00 0.00 42 1013.8
20260504230512 18 165 8.0 20.9 0.00 0.00 0.00 41 1013.6
20260504230012 18 198 4.8 14.5 0.00 0.00 0.00 41 1013.6
20260504225512 18 139 6.4 17.7 0.00 0.00 0.00 42 1013.5
20260504225012 18 180 8.0 17.7 0.00 0.00 0.00 41 1013.5
20260504224511 19 192 6.4 16.1 0.00 0.00 0.00 42 1013.6